THOR ABLESTAR DEB, 268

Orbit data source: Space-Track

THOR ABLESTAR DEB, 268 is space debris in LEO originally from a launch on Thu, 29 Jun 1961 UTC launched from the Air Force Eastern Test Range (AFETR). Debris objects in space refer to the collection of defunct objects orbiting the Earth. Examples of debris include non-operational satellites, rocket bodies, and fragments generated from explosions, collisions, or faulty payload assembly.

Loading next visibility...
Identifier
268, 1961-015CN
Orbit
LEO
Country
Flag of USUS
Related business
Manufacturer
Unknown
Mission
Spacecraft
Bus & Motor
Unknown
Mass
Unknown
Launch date (UTC)
1961-06-29 (65 years ago)
Launch vehicle
Unknown
Launch site
Air Force Eastern Test Range (AFETR)
Object type
Payload
Rocket body
Debris
Shape & HBR
Unknown shape, 0.1 m
Radar Cross Section
Medium (>0.1 m² and <1 m²)

Expand to show TLE details & history
Last TLE update: 2 days ago

TLE from 2 days ago
0 THOR ABLESTAR DEB
1 00268U 61015CN  26134.66996444  .00000580  00000-0  18562-2 0  9990
2 00268  67.9396 267.5454 0648476 171.7658 219.1644 12.51748137949065
Epoch: 2026-05-14T16:04Z
TLE epoch observation values (Epoch: 2026-05-14T16:04:44.927Z)
Latitude
24.47634°
Longitude
164.52695°
Altitude
1,865.504 km
Speed
6.774 km/s
True Right ascension
18h 32m 30s
True Declination
24° 21' 52"
Sunlit
Object was in daylight at epoch
Visualization orbit readout
Latitude
Unknown
Longitude
Unknown
Altitude
Unknown
Speed
Unknown
Apparent Right ascension
Unknown
Apparent Declination
Unknown
Sunlit
N/A
Visualization observer readout
Local Sidereal Time
19:48:36
Azimuth
Unknown
Elevation
Unknown
Doppler factor
Unknown
Orbital elements
Apogee altitude
1,963.562 km
Perigee altitude
947.568 km
Semi-major axis
7,833.702 km
Eccentricity
0.06485
Inclination
67.9396°
RAAN
267.5454°
Arg. of periapsis
171.7658°
True anomaly
214.75381°
Mean anomaly
219.1644°
Eccentric anomaly
216.93189°
Mean motion
3.13035 °/min
Orbital period
115 mins
BSTAR
0.0018562

Documentation

Showing up to 5 results
|